Time,TemperatureF,DewpointF,PressureIn,WindDirection,WindDirectionDegrees,WindSpeedMPH,WindSpeedGustMPH,Humidity,HourlyPrecipIn,Conditions,Clouds,dailyrainin,SoftwareType,DateUTC
2013-07-10 00:02:00,42.0,-99.9,-100.00,SE,138,10.0,13.0,-999,-99.99,,,-99.99,,2013-07-10 08:02:00,
2013-07-10 00:43:00,42.0,-99.9,-100.00,SE,131,13.0,13.0,-999,-99.99,,,-99.99,,2013-07-10 08:43:00,
2013-07-10 01:02:00,42.0,-99.9,-100.00,SE,125,9.0,10.0,-999,-99.99,,,-99.99,,2013-07-10 09:02:00,
2013-07-10 01:12:00,42.0,-99.9,-100.00,SE,134,9.0,12.0,-999,-99.99,,,-99.99,,2013-07-10 09:12:00,
2013-07-10 01:43:00,42.0,-99.9,-100.00,SE,134,10.0,12.0,-999,-99.99,,,-99.99,,2013-07-10 09:43:00,
2013-07-10 01:53:00,42.0,-99.9,-100.00,SE,133,7.0,11.0,-999,-99.99,,,-99.99,,2013-07-10 09:53:00,
2013-07-10 02:01:00,42.0,-99.9,-100.00,SE,130,7.0,8.0,-999,-99.99,,,-99.99,,2013-07-10 10:01:00,
2013-07-10 02:32:00,42.0,-99.9,-100.00,SE,128,6.0,6.0,-999,-99.99,,,-99.99,,2013-07-10 10:32:00,
2013-07-10 02:51:00,-999.0,-99.9,-100.00,SE,144,6.0,7.0,-999,-99.99,,,-99.99,,2013-07-10 10:51:00,
2013-07-10 03:00:00,-999.0,-99.9,-100.00,SE,141,5.0,6.0,-999,-99.99,,,-99.99,,2013-07-10 11:00:00,
2013-07-10 03:33:00,41.0,-99.9,-100.00,SE,133,5.0,5.0,-999,-99.99,,,-99.99,,2013-07-10 11:33:00,
2013-07-10 03:43:00,41.0,-99.9,-100.00,ESE,123,4.0,4.0,-999,-99.99,,,-99.99,,2013-07-10 11:43:00,
2013-07-10 04:02:00,41.0,-99.9,-100.00,ESE,107,0.0,0.0,-999,-99.99,,,-99.99,,2013-07-10 12:02:00,
2013-07-10 04:33:00,41.0,-99.9,-100.00,East,97,0.0,-1.0,-999,-99.99,,,-99.99,,2013-07-10 12:33:00,
2013-07-10 04:43:00,42.0,-99.9,-100.00,East,97,0.0,0.0,-999,-99.99,,,-99.99,,2013-07-10 12:43:00,
2013-07-10 04:53:00,42.0,-99.9,-100.00,ESE,117,1.0,2.0,-999,-99.99,,,-99.99,,2013-07-10 12:53:00,
2013-07-10 05:12:00,41.0,-99.9,-100.00,ESE,117,1.0,1.0,-999,-99.99,,,-99.99,,2013-07-10 13:12:00,
2013-07-10 05:32:00,41.0,-99.9,-100.00,NNW,332,2.0,2.0,-999,-99.99,,,-99.99,,2013-07-10 13:32:00,
2013-07-10 05:43:00,42.0,-99.9,-100.00,NW,324,4.0,4.0,-999,-99.99,,,-99.99,,2013-07-10 13:43:00,
2013-07-10 05:52:00,42.0,-99.9,-100.00,NW,322,3.0,5.0,-999,-99.99,,,-99.99,,2013-07-10 13:52:00,
2013-07-10 06:02:00,42.0,-99.9,-100.00,NNW,330,5.0,5.0,-999,-99.99,,,-99.99,,2013-07-10 14:02:00,
2013-07-10 06:44:00,42.0,-99.9,-100.00,NNW,335,6.0,6.0,-999,-99.99,,,-99.99,,2013-07-10 14:44:00,
2013-07-10 07:43:00,43.0,-99.9,-100.00,NNW,328,7.0,9.0,-999,-99.99,,,-99.99,,2013-07-10 15:43:00,
2013-07-10 07:52:00,44.0,-99.9,-100.00,NNW,328,7.0,7.0,-999,-99.99,,,-99.99,,2013-07-10 15:52:00,
2013-07-10 08:33:00,44.0,-99.9,-100.00,NW,320,7.0,7.0,-999,-99.99,,,-99.99,,2013-07-10 16:33:00,
2013-07-10 08:44:00,44.0,-99.9,-100.00,NW,325,5.0,6.0,-999,-99.99,,,-99.99,,2013-07-10 16:44:00,
2013-07-10 08:53:00,45.0,-99.9,-100.00,NNW,338,5.0,-1.0,-999,-99.99,,,-99.99,,2013-07-10 16:53:00,
2013-07-10 09:02:00,45.0,-99.9,-100.00,NW,326,5.0,5.0,-999,-99.99,,,-99.99,,2013-07-10 17:02:00,
2013-07-10 09:43:00,47.0,-99.9,-100.00,NNW,337,2.0,3.0,-999,-99.99,,,-99.99,,2013-07-10 17:43:00,
2013-07-10 10:02:00,47.0,-99.9,-100.00,NNW,345,4.0,4.0,-999,-99.99,,,-99.99,,2013-07-10 18:02:00,
2013-07-10 10:32:00,47.0,-99.9,-100.00,NNW,345,5.0,-1.0,-999,-99.99,,,-99.99,,2013-07-10 18:32:00,
2013-07-10 10:44:00,47.0,-99.9,-100.00,North,356,5.0,5.0,-999,-99.99,,,-99.99,,2013-07-10 18:44:00,
2013-07-10 11:02:00,47.0,-99.9,-100.00,North,355,3.0,5.0,-999,-99.99,,,-99.99,,2013-07-10 19:02:00,
2013-07-10 11:22:00,48.0,-99.9,-100.00,NNW,336,5.0,7.0,-999,-99.99,,,-99.99,,2013-07-10 19:22:00,
2013-07-10 11:42:00,48.0,-99.9,-100.00,NNW,332,3.0,6.0,-999,-99.99,,,-99.99,,2013-07-10 19:42:00,
2013-07-10 12:02:00,49.0,-99.9,-100.00,NNW,334,4.0,4.0,-999,-99.99,,,-99.99,,2013-07-10 20:02:00,
2013-07-10 12:22:00,49.0,-99.9,-100.00,NNW,342,4.0,5.0,-999,-99.99,,,-99.99,,2013-07-10 20:22:00,
2013-07-10 12:43:00,49.0,-99.9,-100.00,NNW,341,3.0,4.0,-999,-99.99,,,-99.99,,2013-07-10 20:43:00,
2013-07-10 13:01:00,49.0,-99.9,-100.00,NNW,336,5.0,5.0,-999,-99.99,,,-99.99,,2013-07-10 21:01:00,
2013-07-10 13:22:00,48.0,-99.9,-100.00,NNW,341,6.0,6.0,-999,-99.99,,,-99.99,,2013-07-10 21:22:00,
2013-07-10 13:42:00,50.0,-99.9,-100.00,North,357,3.0,5.0,-999,-99.99,,,-99.99,,2013-07-10 21:42:00,
2013-07-10 14:01:00,50.0,-99.9,-100.00,NNW,348,5.0,5.0,-999,-99.99,,,-99.99,,2013-07-10 22:01:00,
2013-07-10 14:43:00,52.0,-99.9,-100.00,NW,318,3.0,4.0,-999,-99.99,,,-99.99,,2013-07-10 22:43:00,
2013-07-10 15:02:00,52.0,-99.9,-100.00,NNW,343,7.0,7.0,-999,-99.99,,,-99.99,,2013-07-10 23:02:00,
2013-07-10 16:11:00,51.0,-99.9,-100.00,NNW,346,7.0,7.0,-999,-99.99,,,-99.99,,2013-07-11 00:11:00,
2013-07-10 16:32:00,52.0,-99.9,-100.00,SW,236,4.0,6.0,-999,-99.99,,,-99.99,,2013-07-11 00:32:00,
2013-07-10 16:43:00,53.0,-99.9,-100.00,WNW,293,4.0,5.0,-999,-99.99,,,-99.99,,2013-07-11 00:43:00,
2013-07-10 16:52:00,53.0,-99.9,-100.00,West,277,4.0,4.0,-999,-99.99,,,-99.99,,2013-07-11 00:52:00,
2013-07-10 17:32:00,53.0,-99.9,-100.00,WSW,255,6.0,6.0,-999,-99.99,,,-99.99,,2013-07-11 01:32:00,
2013-07-10 17:43:00,52.0,-99.9,-100.00,West,263,5.0,6.0,-999,-99.99,,,-99.99,,2013-07-11 01:43:00,
2013-07-10 18:02:00,53.0,-99.9,-100.00,West,264,4.0,6.0,-999,-99.99,,,-99.99,,2013-07-11 02:02:00,
2013-07-10 18:44:00,54.0,-99.9,-100.00,West,267,6.0,-1.0,-999,-99.99,,,-99.99,,2013-07-11 02:44:00,
2013-07-10 18:53:00,54.0,-99.9,-100.00,WSW,245,8.0,9.0,-999,-99.99,,,-99.99,,2013-07-11 02:53:00,
2013-07-10 19:02:00,52.0,-99.9,-100.00,WSW,245,9.0,9.0,-999,-99.99,,,-99.99,,2013-07-11 03:02:00,
2013-07-10 19:42:00,53.0,-99.9,-100.00,WSW,256,6.0,7.0,-999,-99.99,,,-99.99,,2013-07-11 03:42:00,
2013-07-10 20:02:00,52.0,-99.9,-100.00,WSW,249,6.0,6.0,-999,-99.99,,,-99.99,,2013-07-11 04:02:00,
2013-07-10 20:32:00,51.0,-99.9,-100.00,West,266,4.0,4.0,-999,-99.99,,,-99.99,,2013-07-11 04:32:00,
2013-07-10 20:43:00,52.0,-99.9,-100.00,West,276,3.0,5.0,-999,-99.99,,,-99.99,,2013-07-11 04:43:00,
2013-07-10 21:02:00,51.0,-99.9,-100.00,WSW,241,5.0,6.0,-999,-99.99,,,-99.99,,2013-07-11 05:02:00,
2013-07-10 21:43:00,48.0,-99.9,-100.00,WSW,246,6.0,8.0,-999,-99.99,,,-99.99,,2013-07-11 05:43:00,
2013-07-10 21:52:00,48.0,-99.9,-100.00,SW,227,7.0,8.0,-999,-99.99,,,-99.99,,2013-07-11 05:52:00,
2013-07-10 22:01:00,48.0,-99.9,-100.00,SSW,208,4.0,6.0,-999,-99.99,,,-99.99,,2013-07-11 06:01:00,
2013-07-10 22:43:00,46.0,-99.9,-100.00,SSW,213,8.0,10.0,-999,-99.99,,,-99.99,,2013-07-11 06:43:00,
2013-07-10 23:02:00,45.0,-99.9,-100.00,SW,221,9.0,9.0,-999,-99.99,,,-99.99,,2013-07-11 07:02:00,
2013-07-10 23:32:00,45.0,-99.9,-100.00,SSW,213,5.0,-1.0,-999,-99.99,,,-99.99,,2013-07-11 07:32:00,
2013-07-10 23:45:00,45.0,-99.9,-100.00,SW,232,5.0,7.0,-999,-99.99,,,-99.99,,2013-07-11 07:45:00,
2013-07-10 23:54:00,45.0,-99.9,-100.00,WSW,240,5.0,8.0,-999,-99.99,,,-99.99,,2013-07-11 07:54:00,